Regional Weather Roundup
Issued by NWS

Home | Current Version | Previous Version | Graphics & Text | Print | Product List | Glossary On
Versions: 1 2 3 4 5 6 7 8 9 10 11 12 13 14 15 16 17 18 19 20 21 22 23 24 25 26 27 28 29 30 31 32 33 34 35 36 37 38 39 40 41 42 43 44 45 46 47 48 49 50
000
ASUS43 KOAX 211302
RWRNE

WEATHER ROUNDUP FOR NEBRASKA
NATIONAL WEATHER SERVICE OMAHA NE
800 AM CDT THU AUG 21 2014

NOTES: SATELLITE DATA IS BEING USED TO AUGMENT CLOUD COVER ABOVE
       12000 FEET.
       "FAIR" INDICATES FEW OR NO CLOUDS BELOW 12,000 FEET WITH NO
       SIGNIFICANT WEATHER AND/OR OBSTRUCTIONS TO VISIBILITY.

  * THESE STATIONS DO NOT REPORT WEATHER SUCH AS RAIN...SNOW OR FOG.

NEZ001>004-019>022-054>056-211400-
NEBRASKA PANHANDLE

CITY           SKY/WX    TMP DP  RH WIND       PRES   REMARKS
SCOTTSBLUFF    CLEAR     59  51  75 N7        29.99R
ALLIANCE       CLEAR     62  54  74 N8        29.96R
CHADRON        CLEAR     58  53  84 NW5       29.96R
KIMBALL        CLEAR     59  48  65 W12       30.03R
SIDNEY         CLEAR     63  50  62 W12       30.01R
$$

NEZ057>060-069>072-079>082-211400-
SOUTHWEST NEBRASKA

CITY           SKY/WX    TMP DP  RH WIND       PRES   REMARKS
NORTH PLATTE   PTSUNNY   70  63  78 CALM      29.86S
IMPERIAL       PTCLDY    69  59  70 N9        29.90S
LEXINGTON      SUNNY     68  64  88 NE6       29.84S
MCCOOK         MOSUNNY   73  60  63 N9        29.86R
OGALLALA       MOCLDY    65  59  82 CALM      29.91R
$$

NEZ005>010-023>029-035>040-094-211400-
NORTH CENTRAL NEBRASKA

CITY           SKY/WX    TMP DP  RH WIND       PRES   REMARKS
VALENTINE      CLOUDY    66  62  87 W8        29.90R
AINSWORTH      CLOUDY    67  62  83 W7        29.88R
BROKEN BOW     MOSUNNY   70  64  81 CALM      29.85F
O`NEILL        MOSUNNY   72  65  79 SW6       29.83R
ORD            SUNNY     70  65  84 CALM      29.83S
THEDFORD       CLOUDY    69  62  78 NW8       29.89S
$$

NEZ041-046>049-061>064-073>077-083>087-211400-
SOUTH CENTRAL NEBRASKA

CITY           SKY/WX    TMP DP  RH WIND       PRES   REMARKS
GRAND ISLAND   MOSUNNY   72  67  84 S10       29.82R
AURORA         LGT RAIN  73  70  89 S10       29.82S
HASTINGS       CLOUDY    73  64  73 S12       29.83R
HEBRON         CLOUDY    72  66  83 E3        29.86R
HOLDREGE       MOSUNNY   69  65  88 NW7       29.85R
KEARNEY *      PTSUNNY   70  66  88 SE5       29.84R
YORK           CLOUDY    72 N/A N/A S14       29.82S
$$

NEZ011>018-030>034-042>045-211400-
NORTHEAST NEBRASKA

CITY           SKY/WX    TMP DP  RH WIND       PRES   REMARKS
NORFOLK        MOSUNNY   74  63  68 SW13      29.77R
ALBION         MOSUNNY   71  64  81 CALM      29.81R
BLAIR          CLOUDY    73  67  79 S13G24    29.77F
COLUMBUS *     CLOUDY    55 N/A N/A SW9       29.80R
FREMONT        CLOUDY    74  65  74 S5        29.79R
TEKAMAH        CLOUDY    73  69  87 CALM      29.79R
WAYNE          PTSUNNY   71  65  81 SW3       29.78S
$$

NEZ050>053-065>068-078-088>093-211400-
SOUTHEAST NEBRASKA

CITY           SKY/WX    TMP DP  RH WIND       PRES   REMARKS
LINCOLN        TSTM      72  68  87 SW8       29.85R
OMAHA EPPLEY   LGT RAIN  76  68  76 S12       29.79F
BEATRICE       CLOUDY    74  69  81 SE5       29.86F
FALLS CITY     CLOUDY    79  69  71 NW6       29.87R
NEBRASKA CITY  CLOUDY    74  68  80 SW6       29.87S
PLATTSMOUTH    LGT RAIN  75  68  78 S9        29.84F
$$

NEZ044-045-051>053-067-211400-
OMAHA AREA

CITY           SKY/WX    TMP DP  RH WIND       PRES   REMARKS
OMAHA EPPLEY   LGT RAIN  76  68  76 S12       29.79F
BLAIR          CLOUDY    73  67  79 S13G24    29.77F
FREMONT        CLOUDY    74  65  74 S5        29.79R
MILLARD        LGT RAIN  74  68  81 CALM      29.78F
OFFUTT AFB     SHOWER    74  74  99 S14       29.75F
PLATTSMOUTH    LGT RAIN  75  68  78 S9        29.84F
WAHOO          FAIR      73  64  75 S10G17    29.78R
$$



USA.gov is the U.S. government's official web portal to all federal, state and local government web resources and services.